Regional Weather Roundup
Issued by NWS

Home | Current Version | Previous Version | Text Only | Print | Product List | Glossary Off
Versions: 1 2 3 4 5 6 7 8 9 10 11 12 13 14 15 16 17 18 19 20 21 22 23 24 25 26 27 28 29 30 31 32 33 34 35 36 37 38 39 40 41 42 43 44 45 46 47 48 49 50

000
ASUS43 KMKX 042011
RWRWI

WISCONSIN REGIONAL WEATHER ROUNDUP
NATIONAL WEATHER SERVICE MILWAUKEE/SULLIVAN WI
300 PM CDT TUE AUG 04 2015

NOTE: "FAIR" INDICATES FEW OR NO CLOUDS BELOW 12,000 FEET WITH NO
SIGNIFICANT WEATHER AND/OR OBSTRUCTIONS TO VISIBILITY.

WIZ001-002-006>008-014>016-023>028-042100-
NORTHWEST WISCONSIN

CITY           SKY/WX    TMP DP  RH WIND       PRES   REMARKS
SUPERIOR ARPT  PTSUNNY   74  55  49 N9G16     29.97S
ASHLAND        PTSUNNY   73  56  54 N8        29.99R
HAYWARD        MOSUNNY   75  50  41 NW7       29.98S
SIREN          MOSUNNY   77  50  38 W9        29.97F
CUMBERLAND     CLOUDY    72  52  49 NW8       29.98F
RICE LAKE      PTSUNNY   75  53  46 W7        30.00F
CHETEK         CLOUDY    74  54  50 W5        29.98F
LADYSMITH      PTSUNNY   73  52  47 NW7       30.00F
EAU CLAIRE     PTSUNNY   77  52  41 N12       29.97F
MENOMONIE      MOSUNNY   79  49  34 NW10G17   29.98F
NEW RICHMOND   MOSUNNY   78  50  37 NW12      29.98F
OSCEOLA        MOSUNNY   77  51  40 NW10G16   30.00S
$$

WIZ003>005-009-010-017-018-042100-
NORTH CENTRAL WISCONSIN

CITY           SKY/WX    TMP DP  RH WIND       PRES   REMARKS
MANITOWISH WTR MOSUNNY   67  52  56 NW7       30.00R
ARBOR VITAE    PTSUNNY   70  53  55 N8        30.00R
WOODRUFF       PTSUNNY   70  53  55 N8        30.00R
RHINELANDER    CLOUDY    70  50  49 NW6       29.99R
EAGLE RIVER    PTSUNNY   68  47  45 NW8G18    29.99R
LAND O LAKES   PTSUNNY   68  48  48 N13       30.00R
PHILLIPS       PTSUNNY   70  52  53 W7        29.98S
TOMAHAWK       CLOUDY    69  51  51 W8        29.99R
MEDFORD        CLOUDY    73  53  50 NW8       30.00S
MERRILL        NOT AVBL
$$

WIZ029-030-035-036-043>047-042100-
CENTRAL WISCONSIN

CITY           SKY/WX    TMP DP  RH WIND       PRES   REMARKS
WAUSAU         CLOUDY    75  49  39 NW14      29.96S
MOSINEE        PTSUNNY   73  52  46 W13G24    29.99S
MARSHFIELD     CLOUDY    74  49  41 NW9G18    29.99S
STEVENS POINT  CLOUDY    72  52  49 NW7G16    29.98F
WAUPACA        PTSUNNY   80  50  34 W14       29.96S
WAUTOMA        PTSUNNY   78  49  36 NW12      29.98S
WISC RAPIDS    CLOUDY    76  49  38 NW10      29.99F
CAMP DOUGLAS   MOSUNNY   77  54  44 NW9       29.98F
$$

WIZ011>013-019>022-031-037>040-048>050-042100-
NORTHEAST WISCONSIN

CITY           SKY/WX    TMP DP  RH WIND       PRES   REMARKS
ANTIGO         PTSUNNY   71  49  44 N10G17    29.98S
SHAWANO        MOSUNNY   77  49  37 NW8G20    29.95S
OCONTO         CLOUDY    74  53  46 NW9       29.93R
STURGEON BAY   SUNNY     72  54  53 N7        29.96S
GREEN BAY      MOSUNNY   78  55  44 W12       29.94S
MANITOWOC      MOSUNNY   76  49  38 MISG      29.95S
APPLETON       PTSUNNY   75  46  35 NW14G21   29.96S
CLINTONVILLE   PTSUNNY   79  46  31 NW13G21   29.95S
OSHKOSH        MOSUNNY   78  51  38 W14G22    29.96S
$$

WIZ032>034-041-042-053>061-042100-
SOUTHWEST WISCONSIN

CITY           SKY/WX    TMP DP  RH WIND       PRES   REMARKS
LA CROSSE      MOSUNNY   81  51  35 NW12      29.98F HX  80
SPARTA         MOSUNNY   78  46  32 W9        29.99F
VIROQUA        MOSUNNY   76  53  45 NW9       30.01F
BOSCOBEL       PTSUNNY   83  51  33 NW7       30.00S HX  81
PRAIRIE DU CHI PTSUNNY   78  47  33 CALM      30.00S
PLATTEVILLE    PTSUNNY   78  54  44 NW8       30.00F
$$

WIZ056-057-062-063-064-067-068-042100-
SOUTH CENTRAL WISCONSIN

CITY           SKY/WX    TMP DP  RH WIND       PRES   REMARKS
REEDSBURG      MOSUNNY   78  50  37 NW10G16   29.98F
BARABOO/DELLS  MOSUNNY   77  46  32 W9        29.98F
LONE ROCK      PTSUNNY   79  50  36 W10       29.99F
MINERAL POINT  PTSUNNY   77  48  36 W9        30.01S
MADISON        PTSUNNY   79  53  40 W8G16     29.98F
MIDDLETON      PTSUNNY   79  47  31 W7        30.00R
WATERTOWN      MOSUNNY   77  55  45 NW12      29.97F
MONROE         PTSUNNY   77  52  41 NW10G16   30.00S
JANESVILLE     MOSUNNY   79  46  31 W10       29.99R
$$

WIZ051-052-058>065-066-070>072-042100-
SOUTHEAST WISCONSIN

CITY           SKY/WX    TMP DP  RH WIND       PRES   REMARKS
MILWAUKEE      PTSUNNY   80  50  34 W13G21    29.96S HX  80
WAUKESHA       MOSUNNY   75  48  38 W15G23    29.98F
MILWAUKEE/TIMM SUNNY     79  45  29 NW20      29.97S
RACINE         MOSUNNY   79  51  37 NW9       29.97F
BURLINGTON     MOSUNNY   78  49  36 W9        29.97F
KENOSHA        PTSUNNY   78  58  49 NW9       29.97S
FOND DU LAC    MOSUNNY   78  52  40 NW9       29.97S
SHEBOYGAN      MOSUNNY   76  53  44 W9        29.96S
WEST BEND      MOSUNNY   73  46  38 NW10      29.97S
JUNEAU         MOSUNNY   75  52  45 W8G16     29.98F
$$

LSZ147-162-042100-
LAKE SUPERIOR

STATION/POSITION TIME  TEMP    WIND        PRES    WAVE
                       AIR SEA DIR/SP/G            HT/PER
                 (UTC) (F)     (DEG/KT/KT) (MB)    (FT/S)
W MID LAKE BUOY  1950   58 58  250/  6/  8 1015.5F   0
DEVILS ISLAND    2000   63     260/  3/  5 1015.6S
PORT WING        1900   69      10/  4/  6 1015.2S
SAXON HARBOR     1900   65      40/  8/  9 1015.2R
$$

LMZ867-665-643>646-042100-
LAKE MICHIGAN

STATION/POSITION TIME  TEMP    WIND        PRES    WAVE
                       AIR SEA DIR/SP/G            HT/PER
                 (UTC) (F)     (DEG/KT/KT) (MB)    (FT/S)
CHAMBERS ISLAND  1900   66      50/  3/  4 1013.5S
N MID LAKE BUOY  1950   63 70  320/  2/  4 1013.9R   0
NORTHPORT PIER   2000   65      90/  4/ 19 1014.2R
SISTER BAY       1918             CALM       N/A
ALGOMA LAKESHORE 1912          320/ 10/ 15   N/A
KEWAUNEE LAKESHO 1900   71     340/  5/  9 1013.3R
SHEBOYGAN LAKESH 2000   74     290/  6/  8 1014.5R
PORT WASHINGTON  1900   78     310/  8/ 17 1014.9R
ATWATER BUOY     2000   66 53  330/ 10/ 12 1015.7F
MILWAUKEE LAKESH 1900   76     290/ 15/ 21   N/A
KENOSHA   LAKESH 2000   77     320/ 15/ 18 1013.9F
$$

TC  - TEMPERATURE IN CELSIUS
VSB - VISIBILITY IN STATUTE MILES
WCI - WIND CHILL INDEX
HX  - HEAT INDEX




USA.gov is the U.S. government's official web portal to all federal, state and local government web resources and services.